Tullahoma, TN

12:00 AM CDT on July 28, 2017 (GMT -0500)
Tullahoma Regional-Northern

Weather History for KTHA - February, 2014

Change the Weather History Date:

Wednesday, February 26, 2014

  Actual Average Record
Temperature  
Mean Temperature 24 °F -  
Max Temperature 33 °F 55 °F 55 °F (2017)
Min Temperature 14 °F 32 °F 14 °F (2014)
Degree Days  
Heating Degree Days 41    
Moisture  
Dew Point 10 °F    
Average Humidity 53    
Maximum Humidity 73    
Minimum Humidity 28    
Precipitation  
Precipitation 0.00 in - - ()
Sea Level Pressure  
Sea Level Pressure 30.03 in    
Wind  
Wind Speed 12 mph (North)    
Max Wind Speed 20 mph    
Max Gust Speed -    
Visibility 10 miles    
Events      
Averages and records for this station are not official NWS values.
T = Trace of Precipitation, MM = Missing Value Source: NWS Daily Summary

Daily Weather History Graph

Daily Weather History Graph

Search for Another Location

Airport or City:

Trip Planner

Search our weather history database for the weather conditions in past years. The results will help you decide how hot, cold, wet, or windy it might be!

Date:

Astronomy

Feb. 26, 2014 Rise Set
Actual Time 6:18 AM CST 5:37 PM CST
Civil Twilight 5:52 AM CST 6:03 PM CST
Nautical Twilight 5:23 AM CST 6:32 PM CST
Astronomical Twilight 4:53 AM CST 7:02 PM CST
Moon 3:59 AM CST (2/26) 2:55 PM CST (2/26)
Length of Visible Light 12h 10m
Length of Day
11h 19m
Waning Crescent, 10% of the Moon is Illuminated
Feb 26
Waning Crescent
Mar 1
New
Mar 8
First Quarter
Mar 16
Full
Mar 23
Last Quarter

Hourly Weather History & Observations

Time (CST) Temp. Windchill Dew Point Humidity Pressure Visibility Wind Dir Wind Speed Gust Speed Precip Events Conditions
12:35 AM 32.0 °F 23.0 °F 19.4 °F 60% 30.05 in 10.0 mi North 11.5 mph - N/A   Mostly Cloudy
12:55 AM 32.0 °F 23.6 °F 19.4 °F 60% 30.04 in 10.0 mi North 10.4 mph - N/A   Mostly Cloudy
1:15 AM 30.2 °F 20.8 °F 19.4 °F 64% 30.04 in 10.0 mi NNW 11.5 mph - N/A   Overcast
1:35 AM 30.2 °F 19.3 °F 19.4 °F 64% 30.03 in 10.0 mi North 15.0 mph - N/A   Overcast
1:55 AM 30.2 °F 19.3 °F 19.4 °F 64% 30.03 in 10.0 mi NNW 15.0 mph - N/A   Overcast
2:15 AM 30.2 °F 20.2 °F 19.4 °F 64% 30.04 in 10.0 mi North 12.7 mph - N/A   Overcast
2:35 AM 28.4 °F 19.1 °F 19.4 °F 69% 30.03 in 10.0 mi North 10.4 mph - N/A   Overcast
2:55 AM 28.4 °F 17.0 °F 19.4 °F 69% 30.04 in 10.0 mi North 15.0 mph - N/A   Overcast
3:15 AM 28.4 °F 17.5 °F 17.6 °F 64% 30.05 in 10.0 mi NNW 13.8 mph - N/A   Overcast
3:35 AM 26.6 °F 13.1 °F 17.6 °F 69% 30.05 in 10.0 mi North 19.6 mph - N/A   Mostly Cloudy
3:55 AM 26.6 °F 13.8 °F 17.6 °F 69% 30.07 in 10.0 mi North 17.3 mph - N/A   Mostly Cloudy
4:15 AM 26.6 °F 15.7 °F 15.8 °F 64% 30.08 in 10.0 mi North 12.7 mph - N/A   Overcast
4:35 AM 26.6 °F 14.3 °F 15.8 °F 64% 30.08 in 10.0 mi North 16.1 mph - N/A   Overcast
4:55 AM 26.6 °F 13.4 °F 15.8 °F 64% 30.09 in 10.0 mi North 18.4 mph - N/A   Mostly Cloudy
5:15 AM 26.6 °F 15.7 °F 15.8 °F 64% 30.09 in 10.0 mi North 12.7 mph - N/A   Mostly Cloudy
5:35 AM 26.6 °F 14.7 °F 15.8 °F 64% 30.09 in 10.0 mi North 15.0 mph - N/A   Overcast
5:55 AM 26.6 °F 13.8 °F 15.8 °F 64% 30.08 in 10.0 mi North 17.3 mph - N/A   Overcast
6:15 AM 24.8 °F 12.4 °F 15.8 °F 69% 30.08 in 10.0 mi North 15.0 mph - N/A   Mostly Cloudy
6:35 AM 24.8 °F 14.0 °F 15.8 °F 69% 30.10 in 10.0 mi North 11.5 mph - N/A   Overcast
6:55 AM 24.8 °F 11.9 °F 15.8 °F 69% 30.10 in 10.0 mi North 16.1 mph - N/A   Overcast
7:15 AM 24.8 °F 12.4 °F 15.8 °F 69% 30.11 in 10.0 mi North 15.0 mph - N/A   Overcast
7:35 AM 24.8 °F 13.4 °F 14.0 °F 64% 30.10 in 10.0 mi North 12.7 mph - N/A   Overcast
7:55 AM 24.8 °F 11.9 °F 15.8 °F 69% 30.10 in 10.0 mi North 16.1 mph - N/A   Mostly Cloudy
8:15 AM 24.8 °F 14.0 °F 15.8 °F 69% 30.10 in 10.0 mi North 11.5 mph - N/A   Mostly Cloudy
8:35 AM 24.8 °F 12.9 °F 15.8 °F 69% 30.09 in 10.0 mi North 13.8 mph - N/A   Overcast
8:55 AM 26.6 °F 14.3 °F 15.8 °F 64% 30.10 in 10.0 mi North 16.1 mph - N/A   Overcast
9:15 AM 26.6 °F 15.7 °F 15.8 °F 64% 30.09 in 10.0 mi NNE 12.7 mph - N/A   Overcast
9:35 AM 26.6 °F 15.2 °F 15.8 °F 64% 30.09 in 10.0 mi North 13.8 mph - N/A   Overcast
9:55 AM 24.8 °F 11.9 °F 15.8 °F 69% 30.09 in 10.0 mi NNW 16.1 mph - N/A   Overcast
10:15 AM 24.8 °F 13.4 °F 15.8 °F 69% 30.10 in 10.0 mi North 12.7 mph - N/A   Overcast
10:35 AM 26.6 °F 15.7 °F 15.8 °F 64% 30.10 in 10.0 mi North 12.7 mph - N/A   Overcast
10:55 AM 28.4 °F 17.5 °F 15.8 °F 59% 30.09 in 10.0 mi North 13.8 mph - N/A   Mostly Cloudy
11:15 AM 28.4 °F 18.5 °F 14.0 °F 55% 30.08 in 10.0 mi North 11.5 mph - N/A   Mostly Cloudy
11:35 AM 30.2 °F 21.9 °F 12.2 °F 47% 30.06 in 10.0 mi NNE 9.2 mph - N/A   Partly Cloudy
11:55 AM 32.0 °F 24.8 °F 12.2 °F 44% 30.05 in 10.0 mi ENE 8.1 mph - N/A   Clear
12:15 PM 32.0 °F 23.6 °F 10.4 °F 41% 30.03 in 10.0 mi NNW 10.4 mph - N/A   Clear
12:35 PM 33.8 °F 25.8 °F 8.6 °F 35% 30.02 in 10.0 mi NNW 10.4 mph - N/A   Clear
12:55 PM 33.8 °F 25.3 °F 6.8 °F 32% 30.01 in 10.0 mi North 11.5 mph - N/A   Clear
1:15 PM 33.8 °F 24.3 °F 5.0 °F 30% 30.00 in 10.0 mi NNW 13.8 mph - N/A   Clear
1:35 PM 33.8 °F 26.4 °F 3.2 °F 28% 29.99 in 10.0 mi North 9.2 mph - N/A   Clear
1:55 PM 33.8 °F 26.4 °F 5.0 °F 30% 29.98 in 10.0 mi NW 9.2 mph - N/A   Clear
2:15 PM 33.8 °F 24.3 °F 3.2 °F 28% 29.98 in 10.0 mi NW 13.8 mph - N/A   Clear
2:35 PM 33.8 °F 24.8 °F 5.0 °F 30% 29.97 in 10.0 mi NNW 12.7 mph - N/A   Clear
2:55 PM 33.8 °F 23.9 °F 3.2 °F 28% 29.97 in 10.0 mi North 15.0 mph - N/A   Clear
3:15 PM 33.8 °F 23.9 °F 3.2 °F 28% 29.98 in 10.0 mi North 15.0 mph - N/A   Clear
3:35 PM 32.0 °F 22.1 °F 3.2 °F 30% 29.98 in 10.0 mi NNW 13.8 mph - N/A   Clear
3:55 PM 32.0 °F 22.1 °F 3.2 °F 30% 29.98 in 10.0 mi NNW 13.8 mph - N/A   Clear
4:15 PM 30.2 °F 22.6 °F 3.2 °F 32% 29.98 in 10.0 mi NNW 8.1 mph - N/A   Clear
4:35 PM 30.2 °F 21.3 °F 1.4 °F 29% 29.97 in 10.0 mi North 10.4 mph - N/A   Clear
4:55 PM 28.4 °F 18.5 °F 1.4 °F 31% 29.98 in 10.0 mi NNW 11.5 mph - N/A   Clear
5:15 PM 28.4 °F 19.1 °F -0.4 °F 29% 29.98 in 10.0 mi NNW 10.4 mph - N/A   Clear
5:35 PM 26.6 °F 16.8 °F -0.4 °F 31% 29.98 in 10.0 mi North 10.4 mph - N/A   Clear
5:55 PM 26.6 °F 21.2 °F 1.4 °F 34% 29.98 in 10.0 mi North 4.6 mph - N/A   Clear
6:15 PM 24.8 °F 17.9 °F -0.4 °F 34% 29.98 in 10.0 mi North 5.8 mph - N/A   Clear
6:35 PM 24.8 °F 17.9 °F 1.4 °F 36% 29.98 in 10.0 mi North 5.8 mph - N/A   Clear
6:55 PM 24.8 °F 17.9 °F 1.4 °F 36% 29.99 in 10.0 mi North 5.8 mph - N/A   Clear
7:15 PM 24.8 °F 16.1 °F 1.4 °F 36% 29.99 in 10.0 mi North 8.1 mph - N/A   Clear
7:35 PM 21.2 °F 11.7 °F 3.2 °F 46% 29.99 in 10.0 mi North 8.1 mph - N/A   Clear
7:55 PM 21.2 °F 14.9 °F 3.2 °F 46% 29.99 in 10.0 mi North 4.6 mph - N/A   Clear
8:15 PM 21.2 °F 13.6 °F 3.2 °F 46% 30.00 in 10.0 mi NNW 5.8 mph - N/A   Clear
8:35 PM 21.2 °F 16.4 °F 3.2 °F 46% 30.00 in 10.0 mi North 3.5 mph - N/A   Clear
8:55 PM 21.2 °F 14.9 °F 3.2 °F 46% 30.00 in 10.0 mi North 4.6 mph - N/A   Clear
9:15 PM 21.2 °F 16.4 °F 3.2 °F 46% 30.00 in 10.0 mi North 3.5 mph - N/A   Clear
9:35 PM 21.2 °F - 3.2 °F 46% 30.00 in 10.0 mi Calm Calm - N/A   Clear
9:55 PM 19.4 °F - 6.8 °F 58% 29.99 in 10.0 mi Calm Calm - N/A   Clear
10:15 PM 17.6 °F - 6.8 °F 63% 30.00 in 10.0 mi Calm Calm - N/A   Clear
10:35 PM 15.8 °F - 6.8 °F 68% 29.99 in 10.0 mi Calm Calm - N/A   Clear
10:55 PM 15.8 °F - 6.8 °F 68% 30.00 in 10.0 mi Calm Calm - N/A   Clear
11:15 PM 15.8 °F - 6.8 °F 68% 29.99 in 10.0 mi Calm Calm - N/A   Clear
11:35 PM 15.8 °F - 8.6 °F 73% 30.00 in 10.0 mi Calm Calm - N/A   Clear
11:55 PM 14.0 °F - 6.8 °F 73% 30.00 in 10.0 mi Calm Calm - N/A   Clear